STARLINK-34580, 65808

Orbit data source: Space-Track

STARLINK-34580, 65808 is a payload satellite owned by SpaceX/Seattle (US) in SSO that was launched on Fri, 26 Sep 2025 UTC via an FALCON 9 launch vehicle from the Air Force Western Test Range (AFWTR). Payload-class satellites include a variety of spacecraft equipped with specific instruments for various scientific and technological missions. These include communications satellites like Starlink; space stations such as the ISS; scientific satellites like the Hubble; Earth observation satellites from companies like Planet Labs, Umbra, and HawkEye 360; GPS; miniature CubeSats for education and research; and military/defense satellites.

Loading next visibility...
Identifier
65808, 2025-218T
Orbit
SSO
Country
Flag of USUS
Related business
Manufacturer
SpaceX/Seattle
Mission
Operational Commercial Communications
Bus & Motor
STARLINK V2MO, Unknown motor
Mass
575 kg wet, ~530 kg dry
Launch date (UTC)
2025-09-26 (2 months ago)
Launch vehicle
FALCON 9
Launch site
Air Force Western Test Range (AFWTR)
Object type
Payload
Rocket body
Debris
Shape & HBR
Box + 2 Pan, 17.7 m
Radar Cross Section
36.964 m²

Expand to show TLE details & history
Last TLE update: 15 hours ago

TLE from 15 hours ago
0 STARLINK-34580
1 65808U 25218T   25340.60584264  .00012325  00000-0  85664-3 0  9999
2 65808  97.6030 201.2078 0002419  87.3445 272.8059 15.05659617 10965
Epoch: 2025-12-06T14:32Z
TLE epoch observation values (Epoch: 2025-12-06T14:32:24.804Z)
Latitude
0.00003°
Longitude
-92.52673°
Altitude
552.465 km
Speed
7.586 km/s
True Right ascension
13h 24m 49s
True Declination
0° 00' 00"
Sunlit
Object was in daylight at epoch
Visualization orbit readout
Latitude
Unknown
Longitude
Unknown
Altitude
Unknown
Speed
Unknown
Apparent Right ascension
Unknown
Apparent Declination
Unknown
Sunlit
N/A
Visualization observer readout
Local Sidereal Time
03:28:56
Azimuth
Unknown
Elevation
Unknown
Doppler factor
Unknown
Orbital elements
Apogee altitude
548.15 km
Perigee altitude
544.8 km
Semi-major axis
6,924.612 km
Eccentricity
0.00024
Inclination
97.603°
RAAN
201.2078°
Arg. of periapsis
87.3445°
True anomaly
272.77821°
Mean anomaly
272.8059°
Eccentric anomaly
272.79206°
Mean motion
3.7666 °/min
Orbital period
95.58 mins
BSTAR
0.00085664
Loading maneuver chart data...
Computing Atmospheric mass density...
Loading historical data...
Loading historical data...
Loading historical data...
Loading historical data...
Loading historical data...
Loading historical data...
Loading historical data...

Documentation

Showing up to 5 results
|